This is the latest recevied weather packets stored in our database for station/object KO5MO-10. If no packets are shown the sender has not sent any weather packets the latest 10 day(s).
| Time | Temp. | Humidity | Pressure | Rain* | Wind** | Luminosity | Snow |
|---|---|---|---|---|---|---|---|
| 1777520398 | 25.56° C | 15% | 1007.2 hPa | - | - | - | - |
| 1777519498 | 26.11° C | 15% | 1007.1 hPa | - | - | - | - |
| 1777518598 | 26.11° C | 14% | 1006.7 hPa | - | - | - | - |
| 1777517698 | 26.11° C | 15% | 1006.7 hPa | - | - | - | - |
| 1777516798 | 26.67° C | 15% | 1006.6 hPa | - | - | - | - |
| 1777515898 | 27.22° C | 15% | 1006.4 hPa | - | - | - | - |
| 1777514997 | 27.22° C | 15% | 1006.2 hPa | - | - | - | - |
| 1777514097 | 27.78° C | 15% | 1006.2 hPa | - | - | - | - |
| 1777513197 | 28.33° C | 15% | 1006.1 hPa | - | - | - | - |
| 1777512297 | 28.33° C | 14% | 1006.1 hPa | - | - | - | - |
| 1777511397 | 28.89° C | 14% | 1006.3 hPa | - | - | - | - |
| 1777510496 | 29.44° C | 13% | 1006.6 hPa | - | - | - | - |
| 1777509596 | 30° C | 13% | 1006.6 hPa | - | - | - | - |
| 1777508696 | 30.56° C | 11% | 1006.5 hPa | - | - | - | - |
| 1777507796 | 31.11° C | 12% | 1006.6 hPa | - | - | - | - |
| 1777506896 | 31.67° C | 12% | 1006.7 hPa | - | - | - | - |
| 1777505996 | 31.67° C | 11% | 1006.6 hPa | - | - | - | - |
| 1777505095 | 32.78° C | 11% | 1006.5 hPa | - | - | - | - |
| 1777504195 | 33.33° C | 11% | 1006.8 hPa | - | - | - | - |
| 1777503295 | 34.44° C | 11% | 1006.8 hPa | - | - | - | - |
| 1777502394 | 35° C | 10% | 1007 hPa | - | - | - | - |
| 1777501493 | 36.11° C | 9% | 1007.3 hPa | - | - | - | - |
| 1777500593 | 36.11° C | 11% | 1007.7 hPa | - | - | - | - |
| 1777499693 | 35° C | 10% | 1007.9 hPa | - | - | - | - |
| 1777498793 | 34.44° C | 10% | 1008.2 hPa | - | - | - | - |
* Rain since midnight (hover to see other rain measurements)
** Current wind speed in m/s (hover to see current wind gust speed)